Home   Weather   Appleton   Past weeks

Flag for USA Past Weather in Appleton, Wisconsin, USA — Yesterday and Last 2 Weeks

Now
36 °F

Fog.


Feels Like: 30 °F
Forecast: 33 / 39 °F
Wind: 7 mph from East

Location: Appleton / Outagamie

Current Time: Jan 21, 2017 at 7:43:17 am

Latest Report: Jan 21, 2017 at 6:45 am


Visibility: 1 mi

Pressure: 29.52 "Hg

Humidity: 100%

Dew Point: 36 °F

Location of AppletonLocation

Past Weather in Appleton — Graph

°F

Appleton Temperature Yesterday

Maximum temperature yesterday: 36 °F (at 1:45 pm)
Minimum temperature yesterday: 32 °F (at 12:35 am)
Average temperature yesterday: 34 °F

High & Low Weather Summary for the Past Weeks

 TemperatureHumidityPressure
High36 °F (Jan 10, 3:45 pm)100% (Jan 9, 11:55 pm)30.79 "Hg (Jan 9, 11:55 pm)
Low-9 °F (Jan 6, 7:45 am)43% (Jan 13, 5:22 am)29.07 "Hg (Jan 10, 2:45 pm)
Average20 °F79%30.07 "Hg
* Reported Jan 6 7:00 am — Jan 21 6:05 am, Appleton, Weather by CustomWeather, © 2017

Note: Actual official high and low records may vary slightly from our data, if they occured in-between our weather recording intervals... More about our weather records

Advertising

Appleton Weather History for the Previous 24 Hours

Scroll right to see more
 ConditionsComfort  
Time TempWeatherWind HumidityBarometerVisibility
6:05 am
Sat, Jan 21
36 °FFog.7 mph100%29.52 "Hg4 mi
5:45 am36 °FFog.7 mph100%29.53 "Hg1 mi
5:20 am36 °FFog.6 mph100%29.55 "Hg1 mi
4:15 am34 °FDrizzle. Low clouds.5 mph100%29.55 "Hg1 mi
3:55 am34 °FFog.7 mph100%29.56 "Hg0 mi
3:15 am34 °FFog.5 mph100%29.57 "Hg0 mi
2:35 am34 °FFog.5 mph100%29.59 "Hg1 mi
1:55 am34 °FFog.6 mph100%29.60 "Hg1 mi
1:35 am34 °FFog.7 mph100%29.60 "Hg1 mi
12:55 am34 °FFog.5 mph100%29.60 "Hg1 mi
12:35 am34 °FFog.3 mph100%29.61 "Hg1 mi
11:55 pm
Fri, Jan 20
34 °FFog.5 mph100%29.62 "Hg1 mi
11:15 pm34 °FFog.3 mph100%29.64 "Hg1 mi
10:55 pm34 °FFog.3 mph100%29.65 "Hg0 mi
10:35 pm34 °FFog.3 mph100%29.64 "Hg0 mi
9:45 pm34 °FFog.5 mph100%29.63 "Hg0 mi
9:20 pm34 °FFog.3 mph100%29.65 "Hg1 mi
8:45 pm34 °FFog.3 mph100%29.65 "Hg1 mi
7:45 pm34 °FFog.5 mph100%29.64 "Hg2 mi
6:45 pm34 °FFog.3 mph100%29.66 "Hg2 mi
5:45 pm34 °FFog.No wind100%29.66 "Hg1 mi
4:45 pm34 °FFog.6 mph100%29.63 "Hg1 mi
4:20 pm36 °FFog.6 mph100%29.62 "Hg1 mi
3:45 pm36 °FFog.7 mph100%29.61 "Hg1 mi
2:45 pm36 °FFog.5 mph100%29.62 "Hg1 mi
1:45 pm36 °FFog.6 mph100%29.62 "Hg1 mi
11:45 am34 °FDrizzle. Fog.6 mph100%29.66 "Hg1 mi
10:45 am34 °FDrizzle. Dense fog.7 mph100%29.68 "Hg1 mi
9:45 am34 °FFog.7 mph100%29.68 "Hg1 mi
8:45 am34 °FDrizzle. Dense fog.8 mph100%29.67 "Hg1 mi
7:45 am34 °FChilly.N/A100%29.68 "HgN/A
7:27 am34 °FDrizzle. Fog.3 mph100%29.68 "Hg1 mi
Weather by CustomWeather, © 2017

See weather overviewHow to use our weather pages